Regional Weather Roundup
Issued by NWS

Home | Current Version | Previous Version | Text Only | Print | Product List | Glossary Off
Versions: 1 2 3 4 5 6 7 8 9 10 11 12 13 14 15 16 17 18 19 20 21 22 23 24 25 26 27 28 29 30 31 32 33 34 35 36 37 38 39 40 41 42 43 44 45 46 47 48 49 50

000
ASUS43 KIND 270209
RWRIN

WEATHER ROUNDUP FOR INDIANA
NATIONAL WEATHER SERVICE INDIANAPOLIS IN
900 PM EST MON JAN 26 2015

NOTE: "FAIR" INDICATES FEW OR NO CLOUDS BELOW 12,000 FEET WITH NO
SIGNIFICANT WEATHER AND/OR OBSTRUCTIONS TO VISIBILITY.

* - STATION DOES NOT REPORT WEATHER SUCH AS PRECIPITATION OR FOG.

+ - STATION NOT QUALITY CONTROLLED BY THE NATIONAL WEATHER SERVICE.
    USE DATA WITH CAUTION...ESPECIALLY DEWPOINT AND RELATIVE
    HUMIDITY OBSERVATIONS.

INZ001>003-010>013-019-020-270300-
NORTHWEST INDIANA

CITY           SKY/WX    TMP DP  RH WIND       PRES   REMARKS
GARY /AIRPORT/ LGT SNOW  28  21  74 SE5       29.92S WCI  23
KNOX *+        CLOUDY    23   7  50 S5        29.93S WCI  17
LA PORTE +     FLURRIES  25  18  74 CALM      29.93S
MICHIGAN CITY+ FLURRIES  25  14  63 SE3       29.94S
MONTICELLO +   CLOUDY    23  18  80 E3        29.92F
RENSSELAER +   CLOUDY    28  28 100 S5        29.92F FOG     WCI  23
VALPARAISO     CLOUDY    23  19  85 SE5       29.92S WCI  17

$$

LMZ046-743>745-270300-
SOUTHERN LAKE MICHIGAN

STATION/POSITION TIME  TEMP WIND        PRES
                       AIR  DIR/SP/G
                 (UTC) (F)  (DEG/KT/KT) (MB)
MICHIGAN CITY    0200   24  130/  7/  8   N/A

$$

INZ004-005-014>016-021>024-270300-
NORTH CENTRAL INDIANA

CITY           SKY/WX    TMP DP  RH WIND       PRES   REMARKS
ELKHART        CLOUDY    23   9  54 CALM      29.95R
GOSHEN         CLOUDY    22  11  62 CALM      29.94R
LOGANSPORT +   CLOUDY    21  18  86 E3        29.94S
PERU/GRISSOM   CLOUDY    20  15  78 SE2       29.92F
ROCHESTER +    MOCLDY    25  18  74 SE3       29.93F
SOUTH BEND     CLOUDY    24  15  68 SE6       29.93S WCI  17
WARSAW +       CLOUDY    23  14  68 CALM      29.94R

$$

INZ006>009-017-018-025>027-270300-
NORTHEAST INDIANA

CITY           SKY/WX    TMP DP  RH WIND       PRES   REMARKS
ANGOLA *+      CLOUDY    18   9  68 CALM      29.93R
AUBURN +       CLOUDY    21  12  68 CALM      29.96R
FORT WAYNE     CLOUDY    19  12  74 CALM      29.96R
HUNTINGTON +   CLOUDY    20   9  62 CALM      29.95R

$$

INZ028-029-035-036-043>045-051>053-270300-
WEST CENTRAL INDIANA

CITY           SKY/WX    TMP DP  RH WIND       PRES   REMARKS
CRAWFORDSVL +  CLOUDY    26  19  75 SW7       29.91F WCI  18
GREENCASTLE +  CLOUDY    28  21  74 SW3       29.93S
LAFAYETTE      CLOUDY    28  23  81 SW3       29.93S
TERRE HAUTE    CLOUDY    27  25  92 SW5       29.95S FOG     WCI  22

$$

INZ030>032-037>040-046>048-054>057-064-065-270300-
CENTRAL INDIANA

CITY           SKY/WX    TMP DP  RH WIND       PRES   REMARKS
CP ATTERBURY + CLOUDY    28  23  80 CALM      29.94R
INDIANAPOLIS   FLURRIES  25  21  85 S5        29.92S WCI  19
-EAGLE CREEK   CLOUDY    27  21  78 S3        29.92S
KOKOMO *+      CLOUDY    21  16  79 SE5       29.93S WCI  15
MARION +       CLOUDY    22  13  70 SE3       29.94S
MT COMFORT *+  MOCLDY    27  16  63 CALM      29.92S
SHELBYVILLE    CLOUDY    29  20  69 CALM      29.93R
ZIONSVILLE +   CLOUDY    28  20  72 CALM      29.92S

$$

INZ033-034-041-042-049-050-058-059-270300-
EAST CENTRAL INDIANA

CITY           SKY/WX    TMP DP  RH WIND       PRES   REMARKS
MUNCIE         CLOUDY    21  14  74 SE5       29.93R WCI  15

$$

INZ060-061-067>069-081>083-085>088-270300-
SOUTHWEST INDIANA

CITY           SKY/WX    TMP DP  RH WIND       PRES   REMARKS
EVANSVILLE     CLOUDY    31  27  85 CALM      29.97S
HUNTINGBURG *+ MOCLDY    27  25  93 S3        29.97S
WASHINGTON +   CLOUDY    28  24  88 S3        29.95F

$$

INZ062-063-066-070>080-084-089>092-270300-
SOUTH CENTRAL AND SOUTHEAST INDIANA

CITY           SKY/WX    TMP DP  RH WIND       PRES   REMARKS
BLOOMINGTON    FLURRIES  27  24  89 W3        29.93S
SEYMOUR +      CLOUDY    32  25  74 W5        29.95S WCI  27

$$




USA.gov is the U.S. government's official web portal to all federal, state and local government web resources and services.